[[{"header":{"parameterUnit":"m.s-1","parameterCategory":1,"la1":30.2991,"la2":30.254,"lo1":-89.0895,"lo2":-89.0444,"dy":0.0017,"dx":0.0017,"nx":28,"ny":28,"refTime":"2024-02-01T03:00:00:Z","depth":0,"parameterNumber":2,"parameterNumberName":"U-component_of_WINDS"},"data":[0,0,0,0,0,0,0,0,0,0,0,0,0,0,0,0,0,0,0,0,0,0,0,0,0,0,0,0,0,0,0,0,0,0,0,0,0,0,0,0,0,0,0,0,0,0,0,0,0,0,0,0,0,0,0,0,0,0,-2.83,-2.83,0,-2.8323,-2.8323,-2.8323,-2.8239,-2.8237,-2.8234,-2.8232,-2.8256,-2.8259,-2.8262,0,0,0,0,0,0,0,0,0,0,0,0,0,-2.8187,-2.8189,-2.83,-2.83,-2.83,-2.8323,-2.8323,-2.8323,-2.824,-2.8236,-2.8233,-2.8231,-2.8255,-2.8259,-2.8262,0,0,0,0,0,0,0,0,0,0,0,0,0,-2.8225,-2.819,-2.83,-2.8261,-2.8258,-2.8322,-2.8323,-2.8323,-2.824,-2.8236,-2.8233,-2.8229,-2.8254,-2.8258,-2.8263,-2.8366,0,0,-2.8277,-2.8279,0,0,0,0,0,0,0,0,-2.8223,-2.823,-2.8267,-2.8264,-2.8261,-2.8274,-2.8292,-2.8338,-2.8241,-2.8247,-2.8232,-2.8227,-2.8265,-2.8269,-2.8281,-2.8367,-2.8368,-2.8277,-2.828,-2.8282,-2.8283,0,0,0,0,0,0,0,-2.8221,-2.8228,-2.8309,-2.8267,-2.8264,-2.8244,-2.8245,-2.83,-2.8277,-2.8246,-2.824,-2.8244,-2.8263,-2.8277,-2.8281,-2.8368,-2.8277,-2.8281,-2.8284,-2.8285,-2.8542,-2.8546,0,0,0,0,0,0,-2.8223,-2.8226,-2.8308,-2.8309,-2.8232,-2.8249,-2.825,-2.8274,-2.8276,-2.8273,-2.8247,-2.824,-2.8271,-2.8276,-2.8282,-2.8403,-2.8282,-2.8286,-2.8288,-2.8538,-2.8543,-2.8547,0,0,0,0,0,0,-2.8221,-2.8231,-2.8307,-2.8266,-2.8275,-2.8255,-2.8282,-2.8276,-2.829,-2.8277,-2.8272,-2.8266,-2.8268,-2.8275,-2.8346,-2.8403,-2.8288,-2.8292,-2.8533,-2.8539,-2.8545,-2.8647,0,0,0,0,0,0,-2.8218,-2.8231,-2.8269,-2.8268,-2.8277,-2.837,-2.8285,-2.8279,-2.8298,-2.8289,-2.8293,-2.829,-2.8266,-2.834,-2.835,-2.8407,-2.8295,-2.8528,-2.8536,-2.8543,-2.8639,-2.8656,-2.8671,0,0,0,0,0,-2.8214,-2.8296,-2.8271,-2.8281,-2.8324,-2.8374,-2.8379,-2.8349,-2.8303,-2.8341,-2.8333,-2.829,-2.8395,-2.8348,-2.8359,-2.8418,-2.8524,-2.8533,-2.8542,-2.8631,-2.8653,-2.8671,0,0,0,0,0,0,-2.8304,-2.8295,-2.8267,-2.8352,-2.8364,-2.836,-2.8407,-2.8373,-2.8399,-2.8389,-2.8352,-2.8353,-2.8431,-2.8431,-2.8378,-2.8519,-2.8452,-2.8464,-2.8515,-2.8536,-2.8552,-2.855,-2.8299,0,0,0,0,0,-2.8334,-2.8375,-2.8365,-2.844,-2.8448,-2.8427,-2.8448,-2.8424,-2.8435,-2.844,-2.8437,-2.8451,-2.8487,-2.8511,-2.8543,-2.8639,-2.8639,-2.8685,-2.8701,-2.8715,-2.8726,-2.8778,-2.8798,-2.8578,-2.8578,-2.8577,0,0,-2.8396,-2.8396,-2.8424,-2.8459,-2.8465,-2.8509,-2.8432,-2.8481,-2.8513,-2.8448,-2.8514,-2.8513,-2.8525,-2.8609,-2.8646,-2.8612,-2.8787,-2.8727,-2.8737,-2.8741,-2.8789,-2.881,-2.8829,-2.8584,-2.8583,-2.8582,0,0,-2.8531,-2.8535,-2.8599,-2.8608,-2.8619,-2.8605,-2.8621,-2.8622,-2.8618,-2.8685,-2.8637,-2.8675,-2.8738,-2.8749,-2.8763,-2.8906,-2.8867,-2.8918,-2.9002,-2.9054,-2.9071,-2.9086,-2.9138,-2.9157,-2.8928,-2.8929,-2.8929,0,-2.8606,-2.8669,-2.8636,-2.8689,-2.8706,-2.8649,-2.8715,-2.8725,-2.8747,-2.8761,-2.8723,-2.8801,-2.8806,-2.8892,-2.8927,-2.894,-2.8958,-2.8916,-2.9071,-2.9086,-2.91,-2.9149,-2.9168,-2.8935,-2.8934,-2.8933,-2.8933,0,-2.8762,-2.8807,-2.8857,-2.888,-2.8904,-2.8963,-2.8939,-2.8967,-2.8942,-2.8932,-2.9002,-2.9005,-2.9038,-2.9057,-2.9033,-2.9141,-2.912,-2.9077,-2.9009,-2.9127,-2.9173,-2.9191,-2.8943,-2.8941,-2.8939,-2.8938,0,0,-2.8952,-2.8958,-2.8977,-2.8988,-2.8998,-2.9032,-2.909,-2.9122,-2.9147,-2.9165,-2.9212,-2.9268,-2.9229,-2.9245,-2.9222,-2.9267,-2.9381,-2.9219,-2.9219,-2.925,-2.9502,-2.9535,-2.9557,-2.9356,-2.936,-2.9362,-2.9502,0,-2.9086,-2.9183,-2.9156,-2.9254,-2.9296,-2.9244,-2.9294,-2.9306,-2.9299,-2.9335,-2.9327,-2.9368,-2.9313,-2.9322,-2.9365,-2.9358,-2.9432,-2.9348,-2.9401,-2.9404,-2.94,-2.958,-2.9614,-2.9745,-2.9519,-2.9522,-2.9524,0,-2.9253,-2.9278,-2.938,-2.9385,-2.9402,-2.9447,-2.9476,-2.951,-2.9524,-2.9516,-2.9535,-2.9504,-2.9561,-2.9494,-2.9574,-2.9517,-2.9538,-2.9539,-2.9543,-2.9547,-2.9471,-2.9589,-2.9786,-2.9806,-2.9552,-2.9549,-2.9547,0,-2.9383,-2.9442,-2.9511,-2.9522,-2.9529,-2.9563,-2.9567,-2.9577,-2.9599,-2.9624,-2.9638,-2.967,-2.9688,-2.9714,-2.9693,-2.9645,-2.9777,-2.9707,-2.9773,-2.9774,-2.9802,-2.9801,-3.0005,-2.9816,-2.9815,-2.9815,-2.9815,0,-2.9534,-2.9599,-2.957,-2.9612,-2.9684,-2.9654,-2.9726,-2.9724,-2.9734,-2.9777,-2.9734,-2.9775,-2.9744,-2.9782,-2.9766,-2.9836,-2.9844,-2.984,-2.9835,-2.9844,-2.9844,-2.9856,-2.9847,-2.982,-2.9819,-2.9818,-2.9817,0,-2.969,-2.9673,-2.9746,-2.9747,-2.9749,-2.9802,-2.9804,-2.9844,-2.9835,-2.9889,-2.99,-2.9886,-2.993,-2.9911,-2.9957,-2.9946,-3.0036,-3.0019,-3.0031,-3.0027,-3.0094,-3.0088,-3.0313,-3.0341,-3.0134,-3.0136,-3.0138,0,-2.9788,-2.9836,-2.9844,-2.9869,-2.9877,-2.9918,-2.9941,-2.9913,-2.9939,-2.9959,-2.9998,-3.0037,-3.0068,-3.014,-3.0134,-3.017,-3.0153,-3.023,-3.0158,-3.0166,-3.0155,-3.0152,-3.0158,-3.0244,-3.0246,-3.0248,-3.025,0,-2.9963,-2.9953,-2.9986,-3.0018,-3.0047,-3.007,-3.009,-3.0114,-3.0088,-3.0119,-3.0163,-3.0186,-3.0234,-3.0275,-3.0306,-3.0312,-3.0278,-3.0273,-3.029,-3.0299,-3.0305,-3.0303,-3.007,-3.0268,-3.0266,-3.0265,-3.0264,-3.0263,-3.0092,-3.0134,-3.0146,-3.0186,-3.0199,-3.0219,-3.0257,-3.0254,-3.029,-3.0326,-3.0309,-3.036,-3.0375,-3.0414,-3.0425,-3.0466,-3.0436,-3.046,-3.0467,-3.0473,-3.0482,-3.0299,-3.0471,-3.0471,-3.047,-3.047,-3.047,0,-3.0265,-3.0271,-3.0308,-3.0338,-3.037,-3.0335,-3.0357,-3.0386,-3.0432,-3.0448,-3.0479,-3.0531,-3.0571,-3.057,-3.0607,-3.064,-3.0625,-3.0651,-3.0648,-3.065,-3.0507,-3.0488,-3.0662,-3.0662,-3.0662,-3.0662,-3.0662,-3.0662,-3.0359,-3.0428,-3.042,-3.0495,-3.0501,-3.0551,-3.0566,-3.0586,-3.0599,-3.0659,-3.0692,-3.069,-3.07,-3.0738,-3.0774,-3.0773,-3.0788,-3.082,-3.0813,-3.0679,-3.066,-3.0642,-3.0624,-3.0824,-3.0824,-3.0953,-3.0954,-3.0955]},{"header":{"parameterUnit":"m.s-1","parameterCategory":1,"la1":30.2991,"la2":30.254,"lo1":-89.0895,"lo2":-89.0444,"dy":0.0017,"dx":0.0017,"nx":28,"ny":28,"refTime":"2024-02-01T03:00:00:Z","depth":0,"parameterNumber":3,"parameterNumberName":"V-component_of_WINDS"},"data":[0,0,0,0,0,0,0,0,0,0,0,0,0,0,0,0,0,0,0,0,0,0,0,0,0,0,0,0,0,0,0,0,0,0,0,0,0,0,0,0,0,0,0,0,0,0,0,0,0,0,0,0,0,0,0,0,0,0,0.0657,0.0657,0,0.068,0.068,0.0681,0.0696,0.0696,0.0696,0.0696,0.0719,0.0719,0.072,0,0,0,0,0,0,0,0,0,0,0,0,0,0.0625,0.0625,0.0657,0.0657,0.0657,0.068,0.068,0.0681,0.0695,0.0696,0.0696,0.0696,0.0718,0.0719,0.072,0,0,0,0,0,0,0,0,0,0,0,0,0,0.0642,0.0625,0.0657,0.0667,0.0669,0.068,0.068,0.0681,0.0695,0.0696,0.0696,0.0696,0.0718,0.0719,0.072,0.0722,0,0,0.0722,0.0722,0,0,0,0,0,0,0,0,0.0641,0.0644,0.0665,0.0667,0.0668,0.0685,0.0678,0.0695,0.0695,0.0685,0.0696,0.0696,0.0707,0.0709,0.0713,0.0723,0.0724,0.0722,0.0723,0.0723,0.0723,0,0,0,0,0,0,0,0.064,0.0643,0.0666,0.0666,0.0667,0.0671,0.0674,0.0681,0.0695,0.0686,0.0687,0.069,0.0708,0.0712,0.0714,0.0724,0.0722,0.0723,0.0723,0.0724,0.0739,0.0739,0,0,0,0,0,0,0.0637,0.0641,0.0665,0.0667,0.0655,0.0672,0.0675,0.0679,0.0695,0.0698,0.069,0.0691,0.0711,0.0713,0.0714,0.0719,0.0723,0.0724,0.0724,0.0739,0.0739,0.0739,0,0,0,0,0,0,0.0636,0.0639,0.0664,0.0654,0.0658,0.0672,0.0677,0.068,0.0684,0.0698,0.07,0.0691,0.0711,0.0713,0.072,0.072,0.0724,0.0725,0.0739,0.0739,0.0739,0.0728,0,0,0,0,0,0,0.0635,0.0639,0.064,0.0654,0.0658,0.067,0.0677,0.068,0.0686,0.0687,0.07,0.0702,0.0711,0.0719,0.0721,0.0721,0.0725,0.0739,0.0739,0.0739,0.0728,0.0727,0.0726,0,0,0,0,0,0.0634,0.0635,0.064,0.0642,0.066,0.067,0.0672,0.0682,0.0685,0.0687,0.0696,0.0702,0.072,0.072,0.0722,0.0722,0.0739,0.0739,0.0739,0.0728,0.0727,0.0726,0,0,0,0,0,0,0.0619,0.0637,0.0642,0.0648,0.0657,0.0672,0.0674,0.068,0.0689,0.0689,0.0702,0.0705,0.0711,0.0717,0.0717,0.0726,0.073,0.0731,0.0722,0.0721,0.072,0.0718,0.0726,0,0,0,0,0,0.0616,0.0623,0.0638,0.0641,0.0646,0.0659,0.0664,0.0671,0.0681,0.0685,0.0695,0.0704,0.0712,0.0717,0.0724,0.0729,0.0733,0.0731,0.073,0.0729,0.0729,0.0733,0.0733,0.0738,0.0738,0.0738,0,0,0.061,0.0621,0.0624,0.0639,0.0647,0.0654,0.0662,0.0669,0.0674,0.0686,0.0693,0.0701,0.0712,0.0719,0.0722,0.0724,0.0729,0.0729,0.0728,0.0729,0.0733,0.0733,0.0732,0.0738,0.0738,0.0738,0,0,0.0604,0.0612,0.0616,0.0625,0.0638,0.0647,0.0648,0.0662,0.0668,0.0676,0.0685,0.0692,0.0705,0.0713,0.0719,0.0717,0.0724,0.0719,0.0715,0.0719,0.0718,0.0718,0.0718,0.0718,0.0719,0.0719,0.0719,0,0.0595,0.0606,0.0618,0.0624,0.0631,0.0643,0.0648,0.0655,0.0669,0.0674,0.0676,0.0694,0.0702,0.0711,0.0711,0.0715,0.0717,0.0718,0.0717,0.0717,0.0717,0.0717,0.0717,0.0719,0.0719,0.0719,0.0719,0,0.0594,0.0602,0.0604,0.0619,0.0625,0.0631,0.0644,0.0649,0.0657,0.0666,0.0674,0.0685,0.0696,0.0699,0.0705,0.0709,0.071,0.0715,0.072,0.0716,0.0716,0.0716,0.0718,0.0718,0.0718,0.0718,0,0,0.0577,0.06,0.0601,0.0608,0.0624,0.063,0.0637,0.0648,0.0653,0.0663,0.0669,0.0681,0.0686,0.0692,0.07,0.0704,0.0703,0.0708,0.0709,0.0707,0.0709,0.0705,0.0705,0.0708,0.0708,0.0708,0.0708,0,0.0573,0.0586,0.0598,0.0606,0.0614,0.0627,0.0633,0.0643,0.0652,0.066,0.067,0.0678,0.0684,0.0688,0.0692,0.0702,0.0703,0.0702,0.0714,0.0714,0.071,0.0705,0.0701,0.0701,0.0708,0.0708,0.0708,0,0.0569,0.058,0.059,0.0606,0.061,0.0615,0.0628,0.0635,0.0647,0.0654,0.0662,0.0671,0.0679,0.0683,0.0695,0.0694,0.0699,0.0705,0.0705,0.0707,0.0711,0.0707,0.0701,0.0701,0.0708,0.0708,0.0708,0,0.0557,0.0573,0.0582,0.0588,0.0607,0.0611,0.0619,0.0632,0.0638,0.0649,0.0654,0.0665,0.0671,0.068,0.0692,0.0693,0.0702,0.0707,0.0708,0.0708,0.0709,0.0709,0.0704,0.0712,0.0712,0.0712,0.0712,0,0.0551,0.0556,0.0577,0.0581,0.0589,0.0603,0.0609,0.0618,0.063,0.0637,0.0649,0.0655,0.0671,0.0679,0.0689,0.0697,0.07,0.0705,0.0708,0.0704,0.0704,0.0708,0.0708,0.0712,0.0712,0.0712,0.0712,0,0.0537,0.0551,0.0561,0.0579,0.0584,0.0589,0.0604,0.061,0.062,0.0629,0.0632,0.0648,0.0659,0.0672,0.0687,0.0693,0.0701,0.0704,0.0697,0.0698,0.0699,0.0699,0.0697,0.0698,0.0705,0.0705,0.0705,0,0.0533,0.0537,0.0557,0.0563,0.0571,0.0581,0.0588,0.0603,0.061,0.0626,0.0629,0.0641,0.0652,0.0669,0.0681,0.0693,0.0697,0.0696,0.0699,0.0696,0.0698,0.0697,0.0698,0.0695,0.0694,0.0694,0.0694,0,0.0523,0.053,0.0541,0.0554,0.0563,0.0573,0.0585,0.0589,0.0606,0.0614,0.0626,0.0634,0.065,0.0662,0.0675,0.0684,0.0692,0.0693,0.0694,0.0691,0.0687,0.0689,0.0695,0.0693,0.0693,0.0693,0.0693,0.0693,0.0514,0.052,0.0535,0.0546,0.0557,0.0567,0.0574,0.0586,0.0596,0.0611,0.0619,0.0631,0.0645,0.0664,0.0672,0.0682,0.0685,0.0686,0.0686,0.0686,0.0686,0.0685,0.0684,0.0684,0.0684,0.0685,0.0685,0,0.0506,0.0517,0.0527,0.0543,0.0553,0.0561,0.0574,0.0582,0.0592,0.0605,0.0615,0.0629,0.0642,0.0656,0.0669,0.0674,0.0678,0.0677,0.0677,0.0679,0.0682,0.068,0.0673,0.0673,0.0673,0.0673,0.0673,0.0673,0.0502,0.0512,0.0522,0.0537,0.0548,0.056,0.0567,0.0578,0.0588,0.0604,0.0614,0.0624,0.0637,0.0652,0.0663,0.0667,0.0672,0.067,0.0675,0.0677,0.0678,0.0679,0.0678,0.067,0.067,0.0671,0.0671,0.0671]}]]